Location: Stony Creek
(40.9500°S, 175.8500°E)
Time: 08:55:14
(UTC+00:00)

Cosmos 304 Rocket - Pass Details

Date: 15 May 2026
Orbit: 668 x 676 km, 74.0° (Epoch: 10 June)

Event Time Altitude Azimuth Distance (km) Brightness Sun altitude
Exits shadow 17:59:11 - 199° (SSW) 2,666 6.5 -14.9°
Reaches altitude 10° 18:00:32 10° 198° (SSW) 2,128 6.0 -14.6°
Maximum altitude 18:05:20 85° 110° (ESE) 686 3.8 -13.7°
Drops below altitude 10° 18:10:05 10° 20° (NNE) 2,099 6.7 -12.9°
Sets 18:12:21 0° 19° (NNE) 3,005 7.6 -12.4°
